03:50
Airports
History
Links
Donate
Help keep this website running!
PayPal
Bitcoin
This page is community maintained. The information is intended for PC simulator navigation or reference.
Always use approved charts for navigation.
4D9
Alma MuniUpdated 21-May-2014
Alma Muni (4D9)
Alma, Nebraska, United States (68920)
4
Lat/Lng:40° 6' 44.86" N / 99° 20' 47.08" W
40.112461 / -99.346411
Elevation:2073'ft / 632mMSL
Declination:E008°
ID / ICAO:4D9
FAA:4D9
Runways:1
Longest:17-35
Grass 998m / 3,274ft
(Edited 2014-05-21) [ Sign in to Edit ]
Nearby Weather03:35 GMT 2017-11-24
Nearby weather at KHDE, Brewster Field located 23.5 nautical miles from 4D9
Altimeter: 29.79
Visibility: 10.0 statute miles
Wind: 9 knots (from 220°)
Temp: 13°c / 55°f
Humidity: 58.2%

METAR: KHDE 240335Z AUTO 22009KT 10SM CLR 13/05 A2979 RMK AO2 T01250050

(Powered by phpweather)
Nearby VORs <50NM
Nearby NDBs
Runway 17 / 35
Dimensions:997.8 x 36.6m 3274' x 120'ft
Surface:Grass
Runway 17 [A]Runway 35 [B]
Heading:169°MH  177°TH349°MH   357°TH
Lat:
Lng:
40° 7' 6.22"N
99° 20' 45.09"W
40° 6' 33.85"N
99° 20' 43.61"W
User Notes and Comments
40° 6' 44.86" N / 99° 20' 47.08" W
Distance To
Airport ID:
Nearby Airports
4 L J Bose Airstrip 8.2 NM
67NE W 281°
4 Smith 18.3 NM
8NE7 E 92°
(R) Bunger Field 21.1 NM
81NE ENE 58°
4 Franklins Plainview 22.3 NM
8NE6 E 88°
(U) Brewster Field 23.5 NM
KHDE ( WX ) N
4 Churchill 23.5 NM
K72 S 181°
4 Hewetts 25.2 NM
4V3 W 279°
VFR Chart
Flight Planning at SkyVector.com